| Name | Last modified | Size | Description | |
|---|---|---|---|---|
| Parent Directory | - | |||
| Orientation1.bmp | 2016-02-15 09:17 | 754K | ||
| why-1.jpg | 2016-02-15 09:17 | 688K | ||
| Urban-Village.jpg | 2016-02-15 09:17 | 606K | ||
| paint-brushes2.jpg | 2016-02-15 09:17 | 546K | ||
| DarthVader.jpg | 2016-02-15 09:17 | 509K | ||
| Partnership.jpg | 2016-02-15 09:17 | 435K | ||
| square-peg-round-hol..> | 2016-02-15 09:17 | 293K | ||
| utanso1.jpg | 2016-02-15 09:17 | 216K | ||
| utanso.jpg | 2016-02-15 09:17 | 216K | ||
| Urban-Village-1024x1..> | 2016-02-15 09:17 | 191K | ||
| darth-vader.jpg | 2016-02-15 09:17 | 179K | ||
| compass2.jpg | 2016-02-15 09:17 | 173K | ||
| disruption.jpg | 2016-02-15 09:17 | 143K | ||
| darth-vader-1024x677..> | 2016-02-15 09:17 | 120K | ||
| bubble.jpg | 2016-02-15 09:17 | 119K | ||
| august.jpg | 2016-02-15 09:17 | 119K | ||
| why.jpg | 2016-02-15 09:17 | 110K | ||
| crowdsofpeople.jpg | 2016-02-15 09:17 | 107K | ||
| travel-bubble.jpg | 2016-02-15 09:17 | 103K | ||
| focus.jpg | 2016-02-15 09:17 | 91K | ||
| square-peg.jpg | 2016-02-15 09:17 | 77K | ||
| start.jpg | 2016-02-15 09:17 | 74K | ||
| stand_out.jpg | 2016-02-15 09:17 | 68K | ||
| despair.jpg | 2016-02-15 09:17 | 66K | ||
| utanso1-650x270.jpg | 2016-02-15 09:17 | 61K | ||
| contemplation.jpg | 2016-02-15 09:17 | 57K | ||
| shadow.jpg | 2016-02-15 09:17 | 54K | ||
| Partnership-650x270.jpg | 2016-02-15 09:17 | 53K | ||
| crowdsofpeople-425x1..> | 2016-02-15 09:17 | 53K | ||
| paint-brushes2-650x2..> | 2016-02-15 09:17 | 53K | ||
| Urban-Village-650x27..> | 2016-02-15 09:17 | 47K | ||
| disruption-450x270.jpg | 2016-02-15 09:17 | 45K | ||
| roller-coaster-620x2..> | 2016-02-15 09:17 | 44K | ||
| start-480x270.jpg | 2016-02-15 09:17 | 42K | ||
| bubble-500x270.jpg | 2016-02-15 09:17 | 41K | ||
| compass2-650x270.jpg | 2016-02-15 09:17 | 39K | ||
| raise-the-bar.jpg | 2016-02-15 09:17 | 39K | ||
| roller-coaster.jpg | 2016-02-15 09:17 | 38K | ||
| why-500x270.jpg | 2016-02-15 09:17 | 36K | ||
| depressed-and-worrie..> | 2016-02-15 09:17 | 34K | ||
| depressed-and-worrie..> | 2016-02-15 09:17 | 34K | ||
| disruption-271x300.jpg | 2016-02-15 09:17 | 33K | ||
| shadow-400x270.jpg | 2016-02-15 09:17 | 33K | ||
| soap-bubble.jpg | 2016-02-15 09:17 | 32K | ||
| out.jpg | 2016-02-15 09:17 | 30K | ||
| hello.jpg | 2016-02-15 09:17 | 30K | ||
| i-can-help.jpg | 2016-02-15 09:17 | 29K | ||
| the-potter.jpg | 2016-02-15 09:17 | 29K | ||
| start-282x300.jpg | 2016-02-15 09:17 | 29K | ||
| crowdsofpeople-300x1..> | 2016-02-15 09:17 | 29K | ||
| utanso1-300x206.jpg | 2016-02-15 09:17 | 27K | ||
| utanso-300x206.jpg | 2016-02-15 09:17 | 27K | ||
| Together.jpg | 2016-02-15 09:17 | 27K | ||
| why-1-300x200.jpg | 2016-02-15 09:17 | 27K | ||
| square-peg-500x270.jpg | 2016-02-15 09:17 | 26K | ||
| Together-400x270.jpg | 2016-02-15 09:17 | 26K | ||
| Urban-Village-300x30..> | 2016-02-15 09:17 | 26K | ||
| hello-my-name-is-480..> | 2016-02-15 09:17 | 25K | ||
| hello-my-name-is.jpg | 2016-02-15 09:17 | 24K | ||
| water_walk-440x270.jpg | 2016-02-15 09:17 | 24K | ||
| Together-300x300.jpg | 2016-02-15 09:17 | 23K | ||
| Partnership-300x200.jpg | 2016-02-15 09:17 | 23K | ||
| contemplation-522x27..> | 2016-02-15 09:17 | 23K | ||
| paint-brushes2-300x2..> | 2016-02-15 09:17 | 23K | ||
| water_walk.jpg | 2016-02-15 09:17 | 21K | ||
| crazy-hair.jpg | 2016-02-15 09:17 | 21K | ||
| stand_out-650x270.jpg | 2016-02-15 09:17 | 21K | ||
| compass2-239x300.jpg | 2016-02-15 09:17 | 21K | ||
| shadow-225x300.jpg | 2016-02-15 09:17 | 20K | ||
| key-to-success.jpg | 2016-02-15 09:17 | 20K | ||
| justin-signature-12...> | 2016-02-15 09:17 | 20K | ||
| justin-signature-11...> | 2016-02-15 09:17 | 20K | ||
| justin-signature-1.jpeg | 2016-02-15 09:17 | 20K | ||
| Still-waters.jpg | 2016-02-15 09:17 | 19K | ||
| roller-coaster-300x1..> | 2016-02-15 09:17 | 19K | ||
| i-can-help-346x270.jpg | 2016-02-15 09:17 | 19K | ||
| crazy-hair-342x270.jpg | 2016-02-15 09:17 | 19K | ||
| travel-bubble-300x21..> | 2016-02-15 09:17 | 18K | ||
| bubble-300x216.jpg | 2016-02-15 09:17 | 18K | ||
| crowdsofpeople-150x1..> | 2016-02-15 09:17 | 18K | ||
| depressed-and-worrie..> | 2016-02-15 09:17 | 17K | ||
| selfcare.jpg | 2016-02-15 09:17 | 17K | ||
| august-300x199.jpg | 2016-02-15 09:17 | 17K | ||
| square-peg-300x225.jpg | 2016-02-15 09:17 | 16K | ||
| focus-300x204.jpg | 2016-02-15 09:17 | 16K | ||
| why-300x214.jpg | 2016-02-15 09:17 | 16K | ||
| Measuring.jpg | 2016-02-15 09:17 | 16K | ||
| crazy-hair-256x300.jpg | 2016-02-15 09:17 | 15K | ||
| i-can-help-241x300.jpg | 2016-02-15 09:17 | 15K | ||
| square-peg-round-hol..> | 2016-02-15 09:17 | 15K | ||
| balance-260x270.jpg | 2016-02-15 09:17 | 15K | ||
| the-potter-300x225.jpg | 2016-02-15 09:17 | 15K | ||
| be-a-kid-300x270.jpg | 2016-02-15 09:17 | 15K | ||
| hello-my-name-is-300..> | 2016-02-15 09:17 | 15K | ||
| darth-vader-300x198.jpg | 2016-02-15 09:17 | 15K | ||
| hello-300x198.jpg | 2016-02-15 09:17 | 15K | ||
| balance-224x300.jpg | 2016-02-15 09:17 | 14K | ||
| Measuring-400x270.jpg | 2016-02-15 09:17 | 14K | ||
| out-500x270.jpg | 2016-02-15 09:17 | 14K | ||
| water_walk-300x204.jpg | 2016-02-15 09:17 | 14K | ||
| selfcare-300x199.jpg | 2016-02-15 09:17 | 14K | ||
| balance.jpg | 2016-02-15 09:17 | 13K | ||
| DarthVader-300x225.jpg | 2016-02-15 09:17 | 13K | ||
| key-to-success-300x2..> | 2016-02-15 09:17 | 13K | ||
| goldy-300x270.jpg | 2016-02-15 09:17 | 13K | ||
| goldy-296x300.jpg | 2016-02-15 09:17 | 13K | ||
| contemplation-300x21..> | 2016-02-15 09:17 | 12K | ||
| soap-bubble-300x195.jpg | 2016-02-15 09:17 | 12K | ||
| utanso1-150x150.jpg | 2016-02-15 09:17 | 12K | ||
| justin-signature-12-..> | 2016-02-15 09:17 | 12K | ||
| justin-signature-11-..> | 2016-02-15 09:17 | 12K | ||
| justin-signature-1-3..> | 2016-02-15 09:17 | 12K | ||
| raise-the-bar-300x19..> | 2016-02-15 09:17 | 12K | ||
| goldy.jpg | 2016-02-15 09:17 | 11K | ||
| disruption-150x150.jpg | 2016-02-15 09:17 | 11K | ||
| be-a-kid.jpg | 2016-02-15 09:17 | 11K | ||
| Still-waters-300x191..> | 2016-02-15 09:17 | 11K | ||
| shadow-161x215.jpg | 2016-02-15 09:17 | 11K | ||
| paint-brushes2-150x1..> | 2016-02-15 09:17 | 11K | ||
| out-224x300.jpg | 2016-02-15 09:17 | 11K | ||
| Partnership-150x150.jpg | 2016-02-15 09:17 | 11K | ||
| Measuring-300x225.jpg | 2016-02-15 09:17 | 10K | ||
| disruption-135x150.jpg | 2016-02-15 09:17 | 10K | ||
| stand_out-300x219.jpg | 2016-02-15 09:17 | 9.4K | ||
| utanso1-150x103.jpg | 2016-02-15 09:17 | 9.4K | ||
| utanso-150x103.jpg | 2016-02-15 09:17 | 9.4K | ||
| roller-coaster-150x1..> | 2016-02-15 09:17 | 8.9K | ||
| compass2-150x150.jpg | 2016-02-15 09:17 | 8.7K | ||
| start-150x150.jpg | 2016-02-15 09:17 | 8.6K | ||
| depressed-and-worrie..> | 2016-02-15 09:17 | 8.4K | ||
| depressed-and-worrie..> | 2016-02-15 09:17 | 8.4K | ||
| Partnership-150x100.jpg | 2016-02-15 09:17 | 8.3K | ||
| despair-300x199.jpg | 2016-02-15 09:17 | 8.2K | ||
| Together-150x150.jpg | 2016-02-15 09:17 | 8.1K | ||
| paint-brushes2-150x1..> | 2016-02-15 09:17 | 8.1K | ||
| start-141x150.jpg | 2016-02-15 09:17 | 8.1K | ||
| Urban-Village-150x15..> | 2016-02-15 09:17 | 8.1K | ||
| crowdsofpeople-148x5..> | 2016-02-15 09:17 | 8.0K | ||
| hello-my-name-is-150..> | 2016-02-15 09:17 | 7.9K | ||
| compass2-119x150.jpg | 2016-02-15 09:17 | 7.6K | ||
| stillwater.jpg | 2016-02-15 09:17 | 7.5K | ||
| why-1-150x100.jpg | 2016-02-15 09:17 | 7.3K | ||
| square-peg-150x150.jpg | 2016-02-15 09:17 | 7.2K | ||
| i-can-help-150x150.jpg | 2016-02-15 09:17 | 7.1K | ||
| shadow-150x150.jpg | 2016-02-15 09:17 | 7.1K | ||
| bubble-150x150.jpg | 2016-02-15 09:17 | 6.9K | ||
| why-150x150.jpg | 2016-02-15 09:17 | 6.9K | ||
| selfcare-150x150.jpg | 2016-02-15 09:17 | 6.7K | ||
| balance-150x150.jpg | 2016-02-15 09:17 | 6.7K | ||
| august-150x99.jpg | 2016-02-15 09:17 | 6.7K | ||
| stillwater-150x150.jpg | 2016-02-15 09:17 | 6.6K | ||
| roller-coaster-150x9..> | 2016-02-15 09:17 | 6.5K | ||
| square-peg-150x112.jpg | 2016-02-15 09:17 | 6.3K | ||
| contemplation-150x15..> | 2016-02-15 09:17 | 6.1K | ||
| i-can-help-120x150.jpg | 2016-02-15 09:17 | 6.0K | ||
| travel-bubble-150x10..> | 2016-02-15 09:17 | 5.9K | ||
| bubble-150x108.jpg | 2016-02-15 09:17 | 5.9K | ||
| be-a-kid-150x150.jpg | 2016-02-15 09:17 | 5.9K | ||
| hello-my-name-is-150..> | 2016-02-15 09:17 | 5.8K | ||
| hello-150x99.jpg | 2016-02-15 09:17 | 5.7K | ||
| square-peg-round-hol..> | 2016-02-15 09:17 | 5.6K | ||
| shadow-112x150.jpg | 2016-02-15 09:17 | 5.6K | ||
| the-potter-150x112.jpg | 2016-02-15 09:17 | 5.6K | ||
| darth-vader-150x99.jpg | 2016-02-15 09:17 | 5.6K | ||
| shadow-111x148.jpg | 2016-02-15 09:17 | 5.5K | ||
| balance-112x150.jpg | 2016-02-15 09:17 | 5.5K | ||
| focus-150x102.jpg | 2016-02-15 09:17 | 5.5K | ||
| stillwater-150x112.jpg | 2016-02-15 09:17 | 5.4K | ||
| out-150x150.jpg | 2016-02-15 09:17 | 5.4K | ||
| why-150x107.jpg | 2016-02-15 09:17 | 5.2K | ||
| selfcare-150x99.jpg | 2016-02-15 09:17 | 5.2K | ||
| goldy-150x150.jpg | 2016-02-15 09:17 | 5.1K | ||
| depressed-and-worrie..> | 2016-02-15 09:17 | 5.1K | ||
| contemplation-150x10..> | 2016-02-15 09:17 | 5.1K | ||
| goldy-148x150.jpg | 2016-02-15 09:17 | 5.0K | ||
| soap-bubble-150x97.jpg | 2016-02-15 09:17 | 4.9K | ||
| crazy-hair-128x150.jpg | 2016-02-15 09:17 | 4.9K | ||
| justin-signature-12-..> | 2016-02-15 09:17 | 4.8K | ||
| justin-signature-11-..> | 2016-02-15 09:17 | 4.8K | ||
| justin-signature-1-1..> | 2016-02-15 09:17 | 4.8K | ||
| raise-the-bar-150x99..> | 2016-02-15 09:17 | 4.8K | ||
| water_walk-150x102.jpg | 2016-02-15 09:17 | 4.8K | ||
| DarthVader-150x112.jpg | 2016-02-15 09:17 | 4.7K | ||
| out-112x150.jpg | 2016-02-15 09:17 | 4.7K | ||
| stand_out-150x150.jpg | 2016-02-15 09:17 | 4.6K | ||
| Measuring-150x150.jpg | 2016-02-15 09:17 | 4.4K | ||
| key-to-success-150x1..> | 2016-02-15 09:17 | 4.4K | ||
| Still-waters-150x95.jpg | 2016-02-15 09:17 | 4.1K | ||
| Measuring-150x112.jpg | 2016-02-15 09:17 | 4.0K | ||
| stand_out-150x109.jpg | 2016-02-15 09:17 | 3.9K | ||
| depressed-and-worrie..> | 2016-02-15 09:17 | 3.6K | ||
| depressed-and-worrie..> | 2016-02-15 09:17 | 3.6K | ||
| despair-150x99.jpg | 2016-02-15 09:17 | 3.6K | ||
| shadow-28x38.jpg | 2016-02-15 09:17 | 1.2K | ||
| crowdsofpeople-38x15..> | 2016-02-15 09:17 | 1.0K | ||
| shadow-23x31.jpg | 2016-02-15 09:17 | 1.0K | ||
| crowdsofpeople-31x12..> | 2016-02-15 09:17 | 961 | ||